星链-1795 (STARLINK-1795 )

导读

STARLINK-1795是美国SpaceX公司星链星座的组网卫星,于2020年10月18日发射升空,归属美国所有。它属于星链低轨互联网星座的批次卫星,主要承担为全球提供低延迟、高速率卫星互联网接入服务的任务,运行在近地轨道,是星链大规模组网进程中的组成单元,助力该星座完成全球网络覆盖布局。

Basic Information
目录编号:
46696
目录名称:
STARLINK-1795
国际标识:
2020-073AC
轨道中心:
EARTH
卫星名称:
星链-1795
卫星全名:
星链-1795 (STARLINK-1795 )
卫星状态:
已陨落 最后检测时间 2026-06-13
发射日期:
2020-10-18 UTC
国别 :
美国 (US)
星等 :
--
Orbit Information
数据来源 国际轨道数据
星历时间: 2026-06-14T03:54:54+0800
5天前
查看轨道信息
半长轴: 6533.004km
偏心率: 0.0009172
轨道倾角: 53.017°
近地点辐角 265.575°
升交点赤经 55.857°
平近点角 94.425°
近地点: 148.874km
远地点: 160.86km
周期: 87.585分钟
每日圈数: 16.441195
Detailed Information
固有亮度:
5
最大亮度:
2.5
卫星平台:
Starlink V1.0
覆盖范围:
全球
运营商:
太空探索技术公司
运营商所在国:
美国
制造商(研发单位):
太空探索技术公司
制造商所在国:
美国
使用方式:
暂无
Satellite Introduction
星链(Starlink)计划是由太空探索技术公司(SpaceX)提出的一个巨型低轨卫星互联网星座项目,计划在2019年至2024年间在太空搭建由约1.2万颗卫星组成的“星链”网络,其中1584颗将部署在地球上空550千米处的近地轨道,并从2020年开始工作。该卫星仍在工作。